Tracking 33068 objects as of 24-Jan-2026
HD Live streaming from Space Station
objects crossing your sky now

ION SCV-017

Track ION SCV-017 now!
10-day predictions


NORAD ID: 63230
Int'l Code: 2025-052W
Perigee: 478.7 km
Apogee: 509.1 km
Inclination: 97.4 °
Period: 94.3 minutes
Semi major axis: 6864 km
RCS: Unknown
Launch date: March 15, 2025
Source: Italy (IT)
Launch site: AIR FORCE WESTERN TEST RANGE (AFWTR)
Your satellite tracking list
Your tracking list is empty




NASA's NSSDC Master Catalog

Two Line Element Set (TLE):
1 63230U 25052W   26024.21027551  .00008074  00000-0  31151-3 0  9998
2 63230  97.4073 280.6225 0022114 194.5781 165.4822 15.26332492 48069
Source of the keplerian elements: AFSPC